Temperature
5 6 6 6 6 7 6 6 6 6 6 6 6 5 5 5 6 6 6 7 7 8 8 9 9 9 10 10 10 10 10 9 9 9 8 8 8 8 8 8 8 8 8 8
5 6 6 6 6 6 6 6 6 6 6 5 5 5 5 4 5 5 5 5 6 7 7 8 8 8 9 9 9 9 9 9 8 8 8 7 7 8 8 8 8 8 7 7
4 5 6 6 5 5 6 5 6 6 5 4 4 4 3 3 3 4 4 4 5 6 6 6 7 7 8 8 8 8 8 8 8 7 7 7 7 7 7 7 7 7 7 6
4 5 5 5 5 5 4 4 4 4 3 3 3 3 3 3 3 3 4 4 5 5 5 6 6 6 7 7 7 7 7 7 7 7 7 6 6 6 6 6 6 6 6 5
3 4 4 5 5 4 5 4 3 3 2 2 3 3 2 2 2 3 3 3 4 4 4 5 5 5 6 6 6 6 7 7 7 6 6 6 6 6 6 5 5 5 5 4
4 4 5 5 4 4 5 4 2 2 2 2 3 2 2 2 2 2 3 3 3 3 4 4 4 4 5 5 6 6 6 6 6 6 6 6 5 5 5 5 4 4 4 3
3 4 3 4 3 4 4 4 2 2 2 1 1 1 1 1 2 2 2 2 2 3 3 3 3 3 4 4 5 5 5 5 5 5 5 5 5 4 4 4 3 3 3 3
3 3 3 2 3 3 2 2 2 2 1 1 1 1 1 1 1 1 1 1 1 2 2 2 2 2 3 3 3 3 4 4 4 4 4 4 4 4 3 3 3 3 2 2
2 3 2 1 2 2 2 2 1 1 1 1 0 0 0 0 0 0 0 0 0 0 1 1 1 1 1 2 2 2 3 3 3 3 3 3 3 3 3 3 2 2 2 2
1 1 1 1 1 2 2 1 1 1 0 0 -0 -0 -0 -0 -1 -1 -1 -1 -0 -0 -0 0 0 0 1 1 1 1 2 2 2 3 3 3 2 2 2 2 2 2 2 2
1 1 0 1 1 1 1 1 0 0 -0 -0 -1 -1 -1 -1 -1 -1 -1 -1 -1 -1 -1 -1 -1 -0 -0 0 0 0 1 1 1 2 2 2 2 2 2 2 2 2 2 1
1 1 -0 1 1 1 0 0 -0 -0 -0 -1 -1 -1 -2 -2 -2 -2 -2 -2 -2 -2 -2 -1 -1 -1 -1 -1 -1 -1 -0 0 0 1 1 1 1 1 1 1 1 1 1 1
2 2 2 1 1 1 0 -0 -0 -1 -1 -1 -1 -2 -2 -2 -2 -2 -2 -2 -2 -2 -2 -2 -2 -2 -2 -2 -2 -2 -1 -1 -1 -0 -0 0 0 0 1 1 1 1 1 1
1 1 1 1 1 0 -0 -0 -1 -1 -1 -1 -2 -2 -2 -2 -2 -2 -3 -3 -3 -3 -3 -3 -3 -3 -3 -3 -2 -2 -2 -2 -1 -1 -1 -1 -0 -0 -0 0 0 0 0 0
1 1 1 0 0 -0 -1 -1 -1 -1 -2 -2 -2 -2 -2 -3 -3 -3 -3 -3 -3 -3 -3 -3 -3 -3 -3 -3 -3 -3 -2 -2 -2 -2 -1 -1 -1 -1 -1 -1 -0 -0 -0 -0
1 0 0 -0 -0 -1 -1 -1 -2 -2 -2 -2 -2 -2 -3 -3 -3 -3 -3 -3 -4 -4 -4 -4 -4 -4 -4 -4 -3 -3 -3 -3 -3 -2 -2 -2 -1 -1 -1 -1 -1 -1 -1 -0
1 0 -0 -0 -0 -1 -1 -2 -2 -2 -2 -2 -2 -3 -3 -3 -3 -3 -3 -4 -4 -4 -4 -4 -4 -4 -4 -4 -4 -4 -4 -3 -3 -3 -3 -2 -2 -2 -2 -2 -1 -1 -1 -1
1 1 0 -0 -1 -1 -1 -2 -2 -2 -2 -3 -3 -3 -3 -3 -3 -3 -4 -4 -4 -4 -4 -4 -5 -5 -5 -5 -4 -4 -4 -4 -4 -3 -3 -3 -2 -2 -2 -2 -2 -1 -1 -1
1 0 -0 -1 -1 -1 -2 -2 -2 -2 -3 -3 -3 -3 -3 -4 -4 -4 -4 -4 -4 -4 -4 -5 -5 -5 -5 -5 -5 -5 -5 -4 -4 -4 -4 -3 -3 -3 -3 -2 -2 -2 -2 -2
0 -0 -0 -1 -1 -1 -2 -2 -2 -3 -3 -3 -3 -4 -4 -4 -4 -4 -4 -5 -5 -5 -5 -5 -5 -5 -5 -5 -5 -5 -5 -5 -5 -4 -4 -4 -4 -3 -3 -3 -3 -2 -2 -2
0 -0 -1 -1 -1 -2 -2 -2 -3 -3 -3 -4 -4 -4 -4 -4 -4 -5 -5 -5 -5 -5 -5 -5 -6 -6 -6 -6 -6 -6 -5 -5 -5 -5 -5 -4 -4 -4 -4 -3 -3 -3 -3 -3
-0 -1 -1 -1 -2 -2 -2 -3 -3 -3 -3 -4 -4 -4 -4 -4 -5 -5 -5 -5 -5 -6 -6 -6 -6 -6 -6 -6 -6 -6 -6 -6 -5 -5 -5 -5 -5 -4 -4 -4 -4 -4 -3 -3
-1 -1 -2 -2 -2 -3 -3 -3 -3 -4 -4 -4 -4 -5 -5 -5 -5 -6 -6 -6 -6 -6 -6 -6 -6 -6 -6 -6 -6 -6 -6 -6 -6 -6 -5 -5 -5 -5 -5 -4 -4 -4 -4 -4
-2 -2 -2 -3 -3 -3 -3 -4 -4 -4 -4 -5 -5 -5 -6 -6 -6 -6 -6 -6 -6 -6 -6 -6 -6 -6 -6 -6 -6 -6 -6 -6 -6 -6 -6 -6 -6 -5 -5 -5 -5 -5 -5 -4
-2 -3 -3 -3 -4 -4 -4 -5 -5 -5 -5 -5 -5 -6 -6 -6 -7 -7 -7 -7 -7 -7 -7 -7 -7 -7 -7 -7 -7 -7 -7 -7 -7 -6 -6 -6 -6 -6 -6 -6 -5 -5 -5 -5
-3 -3 -4 -4 -5 -5 -5 -6 -6 -6 -6 -6 -6 -6 -6 -7 -7 -7 -7 -7 -7 -7 -7 -7 -7 -7 -7 -7 -7 -7 -7 -7 -7 -7 -7 -6 -6 -6 -6 -6 -6 -6 -6 -6
-4 -4 -4 -5 -5 -6 -6 -6 -7 -7 -7 -7 -7 -7 -7 -7 -7 -7 -7 -7 -7 -7 -7 -7 -7 -7 -7 -7 -7 -7 -7 -7 -7 -7 -7 -7 -7 -7 -7 -6 -6 -6 -6 -6
Wind_Speed
1 2 0 0 0 1 3 4 4 4 3 2 1 2 3 4 6 8 9 10 9 8 8 8 8 7 6 5 3 2 2 3 4 4 5 6 6 6 6 7 7 7 7 6
3 4 2 2 2 0 1 1 2 1 1 1 2 4 5 6 7 8 8 9 9 9 9 8 8 8 7 6 5 3 3 4 4 5 6 6 6 7 7 7 6 7 6 6
2 4 3 3 3 2 1 1 2 3 2 1 2 3 4 4 6 6 7 8 9 8 8 8 8 7 8 7 5 3 3 3 4 5 6 6 7 7 7 7 6 6 6 6
1 3 2 3 2 1 3 2 2 2 2 1 1 3 4 4 5 6 7 8 8 8 8 7 7 7 7 6 5 4 3 4 4 5 6 6 7 7 7 5 6 6 6 6
2 0 5 3 1 1 2 0 1 1 2 3 2 2 2 4 5 5 6 6 7 7 7 7 8 7 7 6 5 4 4 4 4 5 6 7 8 8 6 6 6 5 5 7
2 1 4 2 1 2 2 1 1 2 2 2 3 1 2 4 6 6 6 6 7 7 7 7 8 7 7 6 5 5 5 5 4 5 7 8 8 7 5 6 6 6 6 6
3 3 5 3 4 0 3 3 1 2 1 1 1 2 4 6 6 6 6 7 7 7 7 7 8 7 7 7 6 6 5 4 4 5 7 7 6 6 6 6 6 6 6 5
4 4 6 2 1 3 3 2 2 1 1 1 2 4 4 5 6 7 7 7 7 7 8 7 7 7 8 8 7 6 5 4 4 4 5 5 7 7 7 8 8 7 6 6
6 5 1 1 1 1 2 3 1 0 1 1 3 4 5 6 6 7 7 7 7 7 8 8 7 6 8 8 7 6 5 5 4 4 4 5 7 8 7 8 7 7 6 6
2 3 2 1 1 1 2 2 1 1 1 2 3 5 6 6 7 7 7 7 7 7 8 9 8 8 7 8 8 6 6 5 4 4 4 5 6 7 8 8 8 7 8 7
3 3 1 3 4 3 2 1 0 1 1 3 4 5 6 6 7 7 7 7 7 7 9 10 9 9 8 8 7 7 6 5 4 4 5 6 6 7 8 9 9 10 8 8
5 5 5 4 4 4 3 2 2 2 3 3 4 6 6 7 7 7 8 7 8 8 9 9 9 9 9 8 7 7 6 5 4 4 4 5 5 6 10 10 13 14 12 10
3 2 3 2 2 3 3 2 2 3 4 5 5 5 6 7 7 7 8 8 9 10 10 10 10 10 9 8 7 7 7 7 5 5 5 5 5 6 5 7 12 15 15 16
3 4 2 3 3 2 2 2 2 3 4 5 5 6 6 7 8 8 9 9 9 10 10 10 10 10 9 8 8 8 8 8 6 5 5 6 6 6 5 6 6 6 10 16
4 3 3 2 2 1 1 2 3 5 5 6 5 6 7 8 9 10 9 9 9 9 10 9 10 11 9 8 9 9 8 6 5 5 5 5 5 5 5 6 6 5 4 7
4 2 2 2 3 3 3 3 5 6 6 7 7 8 8 8 9 10 9 8 8 10 10 10 11 10 9 9 9 8 7 9 8 6 5 5 5 5 5 6 6 6 6 6
5 3 4 4 5 5 5 5 6 7 7 8 8 8 8 9 9 10 9 8 8 10 10 11 11 10 9 8 8 7 7 7 8 6 5 5 5 5 5 6 6 6 6 7
5 5 5 5 5 6 6 6 7 7 7 8 8 8 8 9 10 11 10 10 10 10 10 9 9 9 8 8 7 6 7 6 6 5 5 5 5 5 5 5 6 6 5 6
4 4 4 5 5 5 6 7 7 7 7 7 8 8 9 9 9 10 10 10 10 11 9 8 11 9 8 8 9 6 6 6 6 5 5 6 5 4 4 4 5 5 4 5
3 3 4 4 5 5 6 7 7 7 7 7 7 9 9 10 9 9 9 9 9 8 9 10 9 8 8 8 8 5 6 6 6 5 4 4 4 4 4 4 4 4 4 4
3 4 4 5 6 6 6 6 6 8 8 7 7 9 10 10 9 8 8 9 8 8 8 12 8 7 7 7 8 5 5 5 5 5 5 4 4 4 4 4 3 3 3 3
3 4 5 5 6 7 6 6 6 8 8 8 8 8 9 10 9 8 8 8 8 11 8 6 6 9 9 9 5 4 5 5 4 4 4 4 4 3 3 3 3 2 2 2
3 4 5 5 6 7 7 6 6 7 8 8 8 8 9 9 7 7 9 6 6 11 8 6 9 12 12 6 4 4 4 4 4 3 3 3 2 2 2 2 2 1 1 1
3 4 4 5 4 5 7 7 7 6 7 8 8 8 8 8 7 6 7 11 12 13 7 9 12 12 10 4 3 3 3 3 3 2 2 2 1 1 1 1 1 1 1 1
3 3 4 4 5 5 6 7 7 7 7 6 7 7 6 5 6 7 7 8 11 11 7 8 11 11 6 4 4 4 3 3 2 2 2 1 1 1 1 1 1 1 1 1
3 3 4 4 4 5 5 5 5 6 6 7 7 6 6 5 6 6 6 7 8 10 7 5 5 6 4 4 4 4 3 3 3 2 2 2 1 1 1 1 1 1 1 1
3 3 3 4 4 4 5 5 6 7 7 7 8 7 7 7 6 6 7 6 6 6 5 4 4 4 4 3 3 3 3 2 2 2 2 2 1 1 1 2 1 1 1 1
Wind_Direction
13 327 141 14 287 151 154 171 175 201 196 256 334 64 57 53 50 45 34 27 22 14 5 1 358 352 345 333 322 299 228 208 203 180 161 154 151 147 142 140 142 139 134 134
18 11 41 33 3 138 180 176 174 150 272 341 63 66 57 49 48 40 25 14 7 3 358 354 347 340 334 326 313 286 242 227 200 173 167 166 160 151 146 144 142 140 145 147
341 328 22 329 305 208 165 111 174 197 222 65 66 65 58 49 45 33 13 2 356 349 340 334 330 328 323 315 309 287 256 231 198 183 180 176 164 158 159 158 152 152 157 160
63 34 259 263 336 147 128 65 28 78 46 39 82 105 79 59 42 16 359 350 343 336 331 327 323 322 317 315 308 289 267 242 209 191 187 175 169 173 169 160 162 165 170 170
100 270 287 300 2 116 144 333 7 77 48 30 28 92 47 32 21 358 341 332 326 322 317 318 321 321 322 320 313 298 280 259 227 201 190 182 186 184 173 166 170 172 171 173
120 174 252 272 308 308 118 289 14 91 76 33 57 64 303 353 349 341 334 327 325 324 322 324 323 323 324 320 315 301 291 277 246 210 198 197 195 184 174 172 176 171 175 179
159 230 268 277 296 25 167 253 116 106 91 66 54 247 298 326 330 326 322 321 324 326 326 320 319 324 323 319 310 302 297 283 255 223 209 201 189 179 172 170 168 174 181 187
165 208 254 339 66 156 194 120 111 105 64 345 289 302 314 320 319 322 323 324 325 326 324 321 321 326 322 314 308 306 296 280 260 235 213 193 181 179 175 173 176 182 188 197
193 212 243 0 144 122 139 137 146 157 313 314 303 307 313 314 315 314 316 317 319 319 319 320 322 322 314 312 312 308 298 284 270 245 214 192 188 186 184 186 189 191 195 207
232 244 216 187 144 111 117 141 156 194 282 299 294 300 307 309 312 314 313 312 314 315 315 316 318 316 307 308 309 303 293 286 271 245 227 208 201 196 195 195 197 197 203 211
238 240 203 228 211 188 152 126 133 301 293 288 291 295 299 303 304 306 306 305 307 307 307 307 310 310 308 306 305 300 293 283 268 246 232 222 215 212 208 209 204 201 206 204
216 207 190 219 197 180 185 218 251 282 296 293 285 288 295 294 296 299 301 304 305 304 302 303 305 304 306 305 298 293 291 282 268 252 240 230 224 228 222 218 220 218 212 205
193 163 172 184 166 174 200 237 260 267 272 285 286 283 289 292 295 298 299 302 302 302 300 301 302 301 301 303 299 289 285 281 271 256 244 235 227 224 230 226 225 224 223 221
155 130 150 184 199 209 224 258 276 286 282 278 281 286 289 291 294 296 296 297 298 300 299 299 299 297 298 300 296 289 283 276 270 261 248 238 230 228 228 225 222 224 225 226
184 178 190 192 198 231 252 278 297 296 293 293 289 290 291 291 293 294 295 297 298 298 298 298 297 296 299 297 294 289 282 273 267 265 257 245 232 225 228 228 228 224 214 222
179 176 185 206 240 260 274 279 282 286 289 289 290 289 288 285 287 290 292 292 293 296 298 298 295 296 298 294 292 288 281 275 271 266 260 253 238 230 228 228 227 224 223 220
159 200 219 241 254 262 261 261 265 274 281 283 286 291 294 294 293 292 293 291 285 287 289 290 291 295 294 291 289 287 282 277 271 266 256 252 244 237 233 232 231 229 229 219
192 201 206 221 238 258 270 271 271 274 276 279 289 292 291 290 290 292 295 298 296 292 288 282 285 291 290 288 286 283 280 274 266 262 260 256 255 244 234 233 232 232 234 227
204 216 229 239 243 250 261 269 273 275 279 283 286 285 284 283 284 289 295 297 296 297 297 293 299 299 291 289 291 281 280 276 270 263 257 258 261 255 245 238 236 232 229 223
220 234 248 260 259 252 263 271 276 280 279 277 280 284 286 286 288 291 293 289 281 279 289 296 298 292 288 287 289 280 277 276 273 269 260 255 255 257 251 245 240 236 231 226
246 259 269 274 278 274 268 272 277 281 285 280 275 279 284 289 290 289 291 293 290 287 292 297 297 290 289 289 287 279 276 275 271 266 261 257 255 255 253 251 244 237 233 230
256 267 274 279 283 288 287 281 276 280 287 288 283 281 287 292 294 290 276 272 286 301 306 295 291 294 299 295 281 276 275 277 277 269 260 257 255 253 254 253 247 239 233 230
266 271 279 283 285 289 295 290 282 281 284 286 287 288 287 287 289 292 297 293 295 304 309 297 304 309 312 306 289 281 281 281 282 279 276 270 266 262 260 260 252 238 233 233
286 291 291 293 295 297 299 301 298 291 286 286 282 282 284 293 294 277 277 299 310 310 306 306 315 320 322 320 304 296 292 290 288 285 286 286 283 278 275 277 271 255 238 230
305 301 303 311 308 299 295 303 306 303 302 299 295 291 285 278 284 297 298 300 308 313 310 313 320 325 328 320 318 313 306 303 303 296 293 297 298 300 302 302 299 294 277 246
319 309 301 292 289 294 301 306 308 308 310 310 309 307 306 302 295 295 298 300 303 312 313 309 313 319 321 319 318 318 318 321 329 339 340 333 330 329 328 332 328 313 289 257
327 322 319 319 317 312 311 310 309 310 312 310 311 314 315 315 313 310 307 307 309 309 308 309 312 313 314 315 318 320 322 325 329 330 331 330 328 325 322 317 308 301 293 277
Height
1466 1463 1462 1461 1461 1460 1462 1465 1467 1466 1466 1465 1465 1465 1464 1464 1463 1462 1462 1462 1462 1462 1462 1462 1462 1462 1462 1462 1462 1462 1463 1463 1464 1465 1466 1468 1470 1472 1474 1475 1477 1479 1480 1481
1466 1464 1463 1462 1462 1462 1463 1463 1464 1465 1467 1466 1466 1466 1466 1466 1465 1465 1465 1464 1464 1463 1462 1462 1461 1461 1460 1460 1460 1459 1459 1460 1460 1461 1463 1464 1466 1468 1469 1471 1473 1474 1476 1477
1471 1467 1462 1467 1465 1464 1464 1466 1465 1466 1468 1467 1467 1467 1468 1468 1467 1467 1466 1465 1464 1463 1462 1461 1460 1459 1458 1457 1456 1456 1455 1456 1456 1457 1459 1460 1462 1463 1465 1467 1469 1470 1471 1472
1474 1470 1473 1469 1466 1465 1466 1468 1468 1467 1468 1468 1468 1468 1469 1469 1468 1467 1466 1465 1464 1463 1461 1460 1458 1457 1455 1454 1453 1452 1452 1452 1452 1453 1454 1456 1457 1459 1461 1462 1464 1465 1466 1467
1476 1477 1473 1468 1466 1466 1467 1468 1470 1469 1469 1469 1468 1468 1469 1469 1468 1468 1467 1465 1464 1462 1460 1458 1456 1454 1452 1450 1449 1448 1448 1448 1448 1449 1450 1451 1453 1454 1456 1457 1459 1460 1461 1462
1476 1474 1472 1468 1467 1466 1467 1469 1470 1469 1470 1469 1468 1471 1471 1469 1468 1467 1465 1463 1461 1459 1457 1455 1453 1451 1449 1447 1445 1444 1444 1443 1444 1444 1445 1446 1448 1449 1451 1452 1453 1455 1456 1457
1475 1476 1473 1469 1466 1466 1472 1470 1470 1469 1470 1470 1470 1471 1471 1468 1466 1465 1463 1461 1459 1456 1454 1452 1450 1447 1445 1443 1441 1440 1439 1439 1439 1439 1440 1441 1442 1444 1445 1447 1448 1449 1450 1452
1475 1476 1475 1469 1467 1469 1470 1469 1469 1470 1470 1470 1469 1469 1467 1466 1464 1462 1460 1458 1455 1453 1451 1448 1446 1443 1441 1439 1437 1436 1435 1434 1434 1435 1435 1436 1437 1438 1439 1441 1442 1443 1445 1446
1472 1472 1469 1468 1468 1468 1468 1469 1469 1469 1469 1469 1468 1466 1465 1463 1461 1459 1457 1454 1452 1449 1447 1444 1442 1440 1437 1435 1433 1432 1430 1430 1429 1429 1430 1430 1431 1432 1433 1435 1436 1437 1439 1440
1470 1468 1467 1467 1467 1468 1468 1468 1468 1468 1468 1467 1466 1464 1462 1460 1458 1456 1453 1451 1448 1446 1443 1440 1438 1436 1433 1431 1429 1427 1426 1425 1424 1424 1424 1425 1426 1427 1428 1429 1430 1432 1433 1435
1468 1466 1466 1466 1466 1467 1467 1467 1467 1466 1465 1464 1463 1461 1459 1457 1455 1452 1450 1447 1445 1442 1439 1436 1433 1431 1429 1427 1425 1423 1421 1420 1419 1419 1419 1419 1420 1421 1422 1424 1425 1426 1428 1430
1464 1462 1463 1463 1464 1465 1465 1465 1464 1463 1462 1461 1460 1458 1456 1453 1451 1448 1446 1443 1440 1437 1434 1431 1429 1426 1424 1422 1420 1418 1416 1415 1414 1414 1414 1414 1415 1415 1416 1418 1419 1421 1422 1424
1459 1460 1461 1461 1462 1463 1463 1462 1461 1460 1459 1458 1456 1454 1452 1449 1447 1444 1441 1438 1435 1432 1430 1426 1423 1421 1419 1417 1415 1413 1411 1410 1409 1408 1408 1408 1409 1409 1410 1412 1413 1415 1416 1418
1458 1459 1459 1460 1460 1460 1460 1459 1458 1457 1456 1454 1452 1450 1448 1445 1442 1439 1437 1434 1431 1428 1425 1422 1419 1416 1414 1411 1409 1407 1406 1405 1404 1403 1403 1403 1403 1404 1405 1406 1407 1408 1411 1412
1456 1457 1458 1458 1458 1458 1457 1456 1455 1454 1452 1450 1448 1446 1444 1441 1438 1435 1432 1429 1426 1423 1420 1417 1414 1411 1409 1406 1404 1402 1400 1399 1398 1398 1397 1397 1397 1398 1399 1400 1401 1403 1404 1407
1454 1455 1456 1456 1456 1455 1454 1453 1452 1450 1448 1446 1444 1442 1439 1437 1433 1430 1427 1424 1421 1417 1414 1411 1408 1406 1403 1401 1399 1397 1395 1394 1393 1392 1392 1392 1392 1392 1393 1394 1395 1397 1398 1400
1452 1453 1453 1453 1453 1452 1451 1450 1449 1447 1445 1442 1440 1438 1435 1432 1429 1426 1423 1420 1416 1413 1409 1406 1403 1400 1398 1396 1393 1391 1390 1388 1387 1387 1386 1386 1386 1387 1387 1388 1389 1391 1392 1394
1450 1451 1451 1451 1450 1449 1448 1447 1445 1443 1441 1439 1436 1433 1430 1427 1424 1421 1417 1414 1411 1407 1404 1401 1397 1394 1392 1390 1388 1386 1384 1383 1382 1381 1381 1381 1381 1381 1382 1383 1384 1385 1386 1388
1448 1448 1448 1448 1447 1446 1444 1443 1441 1439 1437 1434 1431 1429 1426 1423 1420 1416 1413 1409 1405 1401 1398 1396 1392 1390 1387 1385 1383 1381 1379 1378 1377 1376 1375 1375 1375 1376 1376 1377 1378 1379 1381 1382
1446 1446 1445 1444 1444 1442 1440 1439 1437 1435 1432 1430 1427 1424 1421 1418 1415 1411 1407 1404 1401 1397 1393 1390 1387 1385 1382 1380 1378 1376 1374 1373 1372 1371 1370 1370 1370 1371 1371 1372 1373 1374 1375 1377
1443 1443 1442 1441 1440 1438 1437 1435 1432 1430 1428 1425 1422 1419 1415 1412 1409 1406 1402 1398 1395 1393 1389 1385 1383 1380 1377 1375 1373 1371 1369 1368 1367 1366 1366 1366 1366 1366 1366 1367 1368 1369 1371 1372
1440 1440 1439 1437 1435 1434 1432 1430 1428 1425 1423 1420 1417 1414 1411 1407 1404 1401 1397 1394 1390 1387 1384 1381 1378 1376 1373 1371 1368 1367 1365 1364 1363 1362 1362 1362 1362 1362 1362 1363 1364 1365 1366 1367
1437 1436 1435 1433 1432 1430 1428 1426 1424 1421 1418 1415 1412 1409 1406 1402 1399 1396 1392 1389 1386 1383 1380 1377 1374 1372 1369 1367 1365 1363 1361 1360 1359 1359 1358 1358 1358 1358 1359 1359 1360 1361 1362 1363
1434 1433 1432 1430 1428 1425 1423 1421 1419 1416 1413 1410 1408 1405 1401 1397 1394 1391 1388 1385 1382 1379 1376 1373 1371 1368 1366 1363 1361 1360 1358 1357 1356 1356 1355 1355 1355 1355 1356 1356 1356 1357 1358 1358
1431 1430 1428 1426 1423 1421 1419 1416 1414 1411 1408 1405 1403 1400 1397 1393 1390 1386 1384 1381 1378 1375 1372 1370 1367 1365 1363 1360 1358 1357 1355 1354 1353 1353 1352 1352 1352 1352 1352 1353 1353 1353 1354 1355
1428 1426 1424 1422 1420 1417 1415 1412 1409 1406 1404 1400 1398 1395 1392 1389 1386 1383 1380 1377 1375 1372 1369 1367 1364 1362 1360 1358 1356 1355 1353 1352 1351 1350 1350 1350 1349 1349 1349 1349 1350 1350 1350 1351
1425 1423 1421 1419 1416 1414 1411 1409 1406 1403 1400 1397 1394 1391 1388 1385 1382 1379 1377 1374 1372 1369 1367 1364 1362 1360 1358 1356 1354 1353 1352 1350 1349 1348 1348 1347 1347 1347 1346 1346 1347 1347 1347 1347